Find Local Weather

World > North America > United States > Michigan

Leland, Michigan Regional Weather

Lat: 45.02N, Lon: 85.77W
Wx Zone: MIZ020
Feedback

Leland, MI Regional Weather

Expires:201902220500;;315116
ASUS43 KDTX 220410
RWRMI 
MICHIGAN HOURLY REGIONAL WEATHER ROUNDUP
NATIONAL WEATHER SERVICE DETROIT/PONTIAC MI
1100 PM EST THU FEB 21 2019

NOTE: "FAIR" INDICATES FEW OR NO CLOUDS BELOW 12,000 FEET WITH NO
SIGNIFICANT WEATHER AND/OR OBSTRUCTION TO VISIBILITY.


MIZ016>042-220500-
NORTHERN LOWER MICHIGAN
  
CITY           SKY/WX    TMP DP  RH WIND       PRES   REMARKS
ALPENA         CLOUDY    27  20  75 W8        30.25R WCI  19          
BEAVER ISLAND  CLOUDY    28  22  78 CALM      30.27R                  
BELLAIRE       CLOUDY    27  22  79 CALM      30.28R                  
CADILLAC       FAIR      13  11  90 CALM      30.23S FOG              
CHARLEVOIX     FLURRIES  29  25  83 CALM      30.30R                  
FRANKFORT      CLOUDY    29  21  71 NW3       30.27S                  
GAYLORD        LGT SNOW  23  20  88 W7        30.22S FOG     WCI  15  
HARBOR SPRINGS CLOUDY    28  23  82 CALM      30.26R                  
HOUGHTON LAKE  MOCLDY    18  14  84 W3        30.25R                  
MANISTEE       FAIR      21  18  88 CALM      30.28R                  
OSCODA         FAIR      23  16  73 W5        30.27R WCI  17          
PELLSTON       CLOUDY    26  20  77 NW3       30.26R                  
ROGERS CITY    CLOUDY    27  24  86 W7        30.26R WCI  20          
TRAVERSE CITY  CLOUDY    28  20  71 CALM      30.27R                  
$$

SKY/WX - Weather  TMP - Temperature  DP - Dew Point  RH - Relative Humidity
WIND - Wind Direction/Speed PRES - Barometric Pressure VSB - Visibility
WCI - Wind Chill Index E13G22 Wind - East Wind 13 mph/Gusts of 22 mph